Vertical_Velocity
-5 -3 0 1 -2 -1 -1 3 0 0 -1 -0 1 -3 -0 -4 -0 1 3 3 1 1 0 2 1 3 -1 -0 -0 -0 -3 0 -0 -2 -2 -2 -1 -0 -2 -3 -0 2 -0 0 2 -0 1 -1 2
-7 -0 -1 2 -2 -2 -1 -1 -0 -1 1 -1 3 -1 -2 -4 -2 -1 0 4 1 -2 -2 2 2 3 -1 -1 -1 -0 -1 -1 -1 -0 -1 -1 -1 -2 -1 -1 2 -1 -1 -0 1 2 1 0 2
4 -10 1 3 -2 -2 -3 -2 -0 -3 -3 0 -0 1 0 -3 -0 -0 1 2 2 1 1 4 -0 -1 -0 0 0 0 -0 -0 -0 -1 -2 -1 -1 -1 -0 3 1 -0 -0 -0 1 1 -0 6 -3
-0 -3 6 1 2 -2 2 -3 4 1 -0 0 2 -1 1 2 -3 -1 0 2 2 -0 0 0 -2 -1 1 1 0 1 -1 0 -1 0 -0 0 -0 -0 1 2 1 0 -1 -0 -1 0 1 7 -2
-4 2 4 -5 -2 -3 0 -5 2 1 3 -2 2 -2 1 1 2 -4 -0 3 -1 -0 0 0 0 1 0 1 0 -1 -1 -1 1 1 1 -1 0 2 1 -1 -1 -1 3 0 -0 -0 2 0 -1
0 3 5 -3 0 -2 -0 -3 4 0 -2 -2 -4 0 1 0 2 -1 -0 -1 1 -1 -0 -0 1 0 0 0 -0 -1 -1 1 0 0 -0 0 1 -1 -1 1 -1 -1 -1 0 -2 1 -5 -1 -4
-4 2 2 -6 3 0 -5 -2 -4 -1 -2 -0 1 -2 -2 4 3 -1 -3 -1 -0 0 -0 0 1 -1 -0 -0 0 -1 0 0 -1 0 -1 -0 -1 -1 -0 -2 -1 0 0 1 0 0 -1 -1 -4
-3 2 2 2 3 2 -2 -2 0 -1 -4 0 0 1 -4 0 5 -0 -1 -0 -0 1 1 -0 0 -1 -0 -0 1 0 -0 -1 -1 -1 -1 -2 -2 0 2 -0 -2 -1 3 1 2 -0 -1 0 -3
2 -3 1 -4 -1 -1 -2 -1 2 -1 -1 -1 -1 0 3 -2 3 0 -1 1 2 1 1 1 -1 -1 -1 -0 -1 -1 -1 -2 -1 0 -0 -2 0 0 -0 1 -0 -0 1 1 0 -0 0 1 -0
-1 -1 -1 -1 -2 -3 3 -1 -1 -1 -1 -5 -1 2 -1 2 0 0 -1 -2 1 0 0 0 -0 -1 -0 -1 -2 -0 -1 -0 -0 -0 -2 -0 -0 0 -0 -1 -1 -2 -1 -1 -1 1 -1 -1 -1
1 3 -1 -0 -3 1 7 -2 -3 1 -4 -0 -4 3 -1 1 0 0 0 0 1 0 0 -2 -0 0 0 -1 -2 -0 -1 -0 -0 -1 -1 -0 -1 -0 -3 -1 -2 -1 -2 -2 -2 -1 -0 2 1
-2 4 3 -1 -9 -8 -2 2 1 -0 2 1 2 1 1 2 -2 -0 -2 0 0 1 -1 -1 0 1 0 -0 -1 -1 -0 0 -0 -0 -1 0 2 -0 -0 0 -1 1 -0 -1 0 1 2 -0 -4
-3 -0 3 0 -7 -5 -8 5 1 0 4 6 1 -1 1 0 -0 -0 1 1 1 -0 -1 -0 0 -0 -1 0 -1 -1 -1 -1 1 -1 -1 1 0 1 -1 0 0 0 -1 -2 -1 1 2 -0 -0
-0 -3 1 -3 -6 -6 -5 -3 1 -2 5 0 6 -2 0 2 1 1 -0 0 -1 1 -1 -1 1 -0 -1 -0 -1 -0 -1 -3 0 -1 -1 3 0 -2 0 -0 -0 0 -1 -1 1 1 1 -0 2
-1 -2 -0 1 -0 -5 -6 -3 -2 -5 0 2 3 0 1 3 -0 2 -2 -1 -2 -2 -2 1 -1 -1 -1 -1 -1 -1 -1 -0 -1 -1 -2 -2 -2 1 1 1 1 -1 -1 2 3 2 1 2 -2
-4 3 -0 0 1 -2 -6 3 -3 -1 3 3 3 2 1 2 -0 2 1 -0 -1 1 -2 0 -1 -1 -0 -1 0 -0 -1 1 -0 -2 -2 -1 -1 1 -1 -1 -3 -2 -2 2 -0 0 -0 1 1
-4 2 6 2 0 -4 -3 -5 -5 -1 -1 4 2 1 -1 0 2 2 3 0 -2 1 -1 -0 -1 -1 -2 -2 -1 -1 -3 -1 -0 -2 -0 2 0 2 3 -2 1 3 0 -0 0 1 0 -1 -2
4 3 5 3 1 -6 -2 1 -1 -0 4 3 4 -1 -1 1 -1 1 1 1 2 -1 -2 -2 -1 -1 -2 -1 -2 -0 -1 -2 -1 -1 -1 -2 -1 -1 0 1 -0 1 0 -0 1 2 -1 -0 -1
1 0 2 8 -0 -1 -3 -5 -2 -0 4 5 -2 1 0 0 1 -1 -1 2 3 0 -1 -2 0 1 -1 1 -1 -2 -1 0 0 1 2 1 1 -0 -2 -1 -0 1 1 -0 -1 0 0 1 1
-2 -2 -2 11 5 -2 -5 -2 -3 -4 6 5 -1 0 1 3 -0 -1 0 -2 2 1 -0 2 1 2 -0 0 1 0 0 -1 -1 -0 -0 -2 0 -0 -0 -2 -0 2 2 -1 0 -0 0 -0 -1
-1 -4 -3 4 3 -2 2 -7 -6 -0 1 1 2 4 0 3 2 2 -1 -3 -0 2 2 1 3 5 1 -1 0 -1 -1 0 -1 0 -0 -0 -0 -2 1 -1 0 -0 -0 -2 -0 -1 -3 -2 -0
-4 8 4 -1 -1 2 -2 -3 -4 -3 -5 -0 0 -5 2 2 2 6 -2 -0 -1 1 4 2 -1 0 1 2 0 0 -1 -1 -0 0 -1 1 1 1 -0 -0 -0 1 -0 -1 -0 -2 -2 -1 -2
20 2 3 5 1 -0 -2 -13 -1 -6 -7 0 9 -9 -0 -3 -3 4 7 0 -5 2 3 0 -1 0 2 1 -0 -0 0 1 -1 1 -1 -1 -1 -0 -2 0 1 1 1 1 -1 -1 0 -3 -3
7 0 1 2 0 -20 5 -10 -3 -9 4 -1 2 -1 -7 -2 -3 -4 4 2 -1 -3 1 3 0 0 -1 -1 1 1 -2 -2 0 0 1 -1 -1 -2 1 1 0 1 1 -0 -2 -0 -0 -2 -2
-6 -1 -7 -14 -20 -18 6 -21 8 -3 -8 -1 1 4 2 -6 -5 -1 -1 -0 2 -2 -2 1 1 -1 -2 -3 -1 -0 0 1 -1 2 1 1 -1 1 -1 2 -1 -1 -0 -1 -1 -0 -0 -0 -2
6 7 -2 -9 -9 8 5 -41 8 8 4 -1 -6 3 8 3 -3 0 -1 -4 -3 0 -3 -3 -1 -0 -0 -2 -2 1 -0 0 1 3 -1 1 -2 1 0 -1 -1 -0 1 -1 -1 -1 -1 -1 -1
11 -23 28 3 -4 -1 1 -14 -6 1 -5 -1 -8 -5 -2 4 -3 5 -1 3 -1 3 1 -3 -3 -3 -2 -1 -2 -0 -0 -0 1 2 -1 -0 0 0 1 -1 1 -1 0 0 -1 -2 -2 0 0
-13 10 -3 -6 -9 -10 -5 -9 3 5 7 9 -2 -7 -3 2 -3 -3 2 6 -2 6 -4 -1 -1 -3 -1 -3 1 -1 -1 -0 1 -1 1 -0 0 0 -1 -1 -0 1 -0 -1 0 0 0 -1 0
2 -11 -12 2 -16 -9 1 -2 12 4 -3 -2 5 -4 -2 -2 -1 2 6 3 3 3 -2 -1 -4 -0 -2 0 -1 0 -1 -1 1 0 -0 0 0 1 -0 -1 -1 2 1 -1 -2 1 0 -0 -2
2 5 5 -5 -5 -1 1 -10 5 8 4 4 6 2 -1 -4 3 3 2 2 -3 2 2 1 -0 -1 1 -3 -1 -0 0 -1 -1 1 -2 -1 2 2 0 -2 -0 1 -0 -2 -1 -1 -0 1 -0
Height
5880 5879 5880 5879 5880 5879 5880 5882 5883 5883 5884 5884 5885 5885 5886 5886 5886 5889 5886 5886 5886 5885 5886 5887 5888 5888 5887 5886 5886 5888 5889 5889 5890 5890 5890 5891 5891 5891 5891 5891 5891 5891 5891 5892 5892 5893 5893 5893 5893
5881 5882 5881 5880 5880 5880 5881 5883 5885 5885 5885 5885 5886 5888 5887 5886 5887 5888 5887 5889 5889 5887 5888 5888 5889 5888 5888 5888 5889 5890 5890 5891 5892 5892 5892 5893 5893 5892 5893 5893 5893 5893 5893 5893 5893 5894 5894 5893 5893
5883 5882 5882 5883 5880 5882 5883 5883 5885 5885 5885 5885 5887 5887 5888 5888 5888 5887 5888 5890 5891 5891 5890 5890 5890 5889 5889 5890 5891 5891 5892 5893 5893 5894 5894 5895 5895 5895 5895 5896 5896 5895 5895 5895 5896 5897 5896 5896 5894
5885 5883 5882 5881 5884 5884 5885 5886 5887 5887 5886 5887 5886 5886 5889 5889 5889 5888 5889 5891 5892 5893 5891 5892 5891 5891 5891 5892 5892 5893 5894 5895 5895 5895 5896 5897 5897 5897 5898 5898 5898 5898 5898 5897 5898 5898 5898 5896 5896
5884 5883 5882 5884 5885 5886 5887 5888 5888 5888 5889 5889 5889 5888 5888 5891 5891 5889 5891 5893 5894 5893 5893 5893 5893 5893 5893 5893 5894 5895 5896 5896 5896 5897 5898 5899 5899 5900 5900 5900 5899 5899 5899 5899 5900 5899 5898 5897 5897
5885 5886 5884 5886 5888 5888 5889 5888 5887 5886 5888 5889 5889 5890 5890 5892 5892 5892 5893 5894 5895 5893 5894 5895 5895 5895 5895 5895 5896 5897 5897 5896 5897 5899 5900 5901 5901 5902 5902 5902 5901 5900 5901 5902 5902 5901 5899 5898 5899
5885 5887 5887 5887 5890 5890 5889 5889 5888 5887 5887 5889 5890 5889 5890 5892 5894 5894 5894 5895 5895 5895 5895 5895 5896 5897 5897 5897 5898 5898 5897 5898 5899 5901 5902 5903 5903 5904 5903 5903 5903 5902 5903 5904 5904 5902 5901 5900 5899
5885 5887 5888 5890 5893 5891 5889 5889 5889 5888 5887 5889 5890 5890 5890 5892 5895 5896 5896 5896 5895 5896 5896 5897 5898 5898 5899 5899 5900 5900 5900 5901 5903 5903 5904 5905 5906 5906 5907 5905 5905 5905 5906 5906 5906 5905 5903 5902 5901
5885 5886 5888 5890 5892 5892 5890 5889 5888 5887 5888 5890 5890 5891 5891 5891 5895 5896 5896 5897 5897 5897 5897 5898 5899 5900 5900 5901 5902 5902 5903 5904 5905 5906 5907 5908 5909 5909 5908 5908 5908 5908 5908 5908 5908 5907 5906 5904 5903
5884 5887 5887 5889 5890 5888 5889 5888 5887 5888 5890 5891 5891 5890 5891 5893 5895 5896 5896 5896 5897 5897 5898 5900 5900 5901 5901 5903 5903 5904 5906 5906 5907 5908 5909 5911 5912 5912 5912 5912 5912 5912 5912 5911 5910 5910 5909 5908 5906
5886 5889 5889 5887 5887 5886 5890 5889 5888 5891 5890 5890 5888 5890 5891 5892 5894 5896 5896 5896 5897 5898 5899 5900 5901 5902 5903 5905 5906 5907 5909 5909 5910 5911 5912 5913 5913 5914 5913 5914 5914 5913 5914 5914 5912 5912 5911 5910 5908
5886 5889 5888 5884 5881 5883 5888 5890 5890 5893 5894 5892 5889 5890 5891 5892 5893 5894 5895 5896 5897 5898 5900 5901 5902 5903 5905 5907 5908 5909 5910 5912 5913 5913 5914 5915 5914 5915 5915 5915 5915 5915 5915 5915 5914 5913 5912 5911 5910
5881 5885 5885 5883 5881 5885 5885 5890 5891 5893 5894 5893 5891 5889 5889 5891 5892 5893 5895 5896 5897 5899 5899 5901 5903 5905 5906 5908 5910 5911 5912 5913 5914 5915 5915 5917 5917 5917 5916 5917 5917 5918 5917 5916 5915 5914 5914 5912 5910
5878 5878 5882 5881 5879 5882 5886 5888 5891 5892 5894 5893 5893 5890 5888 5889 5891 5893 5894 5896 5897 5899 5900 5902 5905 5906 5908 5910 5912 5913 5913 5915 5916 5916 5916 5918 5918 5918 5919 5919 5918 5918 5917 5917 5916 5915 5914 5913 5911
5875 5878 5881 5881 5880 5881 5887 5888 5889 5889 5892 5893 5893 5891 5888 5888 5890 5893 5894 5896 5897 5898 5901 5903 5905 5908 5909 5911 5913 5914 5915 5916 5917 5918 5918 5918 5919 5920 5920 5919 5919 5918 5917 5917 5916 5916 5915 5913 5911
5873 5877 5880 5882 5881 5880 5884 5888 5888 5888 5891 5894 5894 5892 5889 5889 5890 5892 5894 5896 5898 5899 5901 5903 5906 5908 5910 5912 5913 5915 5916 5918 5918 5918 5918 5919 5919 5920 5920 5920 5919 5918 5917 5916 5915 5914 5913 5911 5910
5868 5874 5878 5880 5881 5883 5885 5884 5886 5887 5891 5894 5894 5892 5889 5889 5890 5891 5894 5897 5897 5899 5901 5904 5906 5908 5911 5912 5914 5915 5915 5917 5918 5919 5919 5920 5921 5921 5921 5920 5920 5920 5917 5915 5913 5911 5909 5907 5906
5866 5872 5876 5878 5879 5878 5881 5881 5883 5885 5891 5894 5892 5890 5889 5889 5890 5890 5894 5896 5898 5899 5901 5903 5906 5908 5910 5912 5914 5915 5915 5915 5917 5919 5920 5921 5921 5920 5921 5920 5918 5917 5915 5914 5912 5910 5908 5907 5905
5864 5867 5871 5877 5876 5877 5877 5875 5877 5883 5889 5893 5891 5889 5889 5890 5891 5890 5893 5897 5899 5900 5901 5903 5906 5909 5911 5912 5914 5914 5916 5917 5918 5920 5921 5921 5921 5920 5919 5918 5917 5916 5914 5912 5911 5909 5907 5905 5903
5859 5862 5867 5874 5874 5873 5874 5874 5874 5878 5885 5890 5890 5889 5889 5890 5891 5892 5892 5895 5899 5901 5903 5905 5907 5909 5910 5912 5912 5913 5915 5916 5918 5919 5919 5919 5919 5918 5917 5916 5915 5914 5913 5910 5908 5906 5904 5901 5899
5855 5859 5864 5869 5869 5870 5871 5870 5872 5872 5879 5885 5886 5887 5887 5889 5891 5893 5894 5896 5898 5901 5904 5906 5907 5909 5909 5910 5911 5912 5913 5915 5917 5918 5918 5918 5918 5917 5916 5915 5915 5913 5911 5909 5907 5904 5902 5899 5897
5850 5858 5860 5862 5864 5865 5864 5866 5868 5868 5873 5880 5883 5882 5884 5887 5890 5893 5893 5897 5899 5901 5903 5905 5906 5907 5908 5909 5910 5911 5912 5913 5915 5916 5917 5917 5917 5916 5915 5914 5913 5911 5911 5909 5906 5904 5901 5897 5895
5853 5852 5856 5858 5858 5859 5858 5857 5863 5865 5868 5875 5880 5880 5883 5885 5888 5891 5893 5895 5897 5898 5901 5902 5904 5905 5905 5906 5908 5909 5910 5912 5913 5914 5915 5915 5915 5915 5913 5912 5912 5911 5910 5908 5906 5904 5902 5899 5895
5847 5847 5849 5850 5851 5844 5853 5852 5859 5859 5865 5870 5877 5879 5880 5884 5887 5889 5893 5895 5896 5897 5897 5899 5901 5902 5903 5904 5905 5906 5907 5909 5910 5911 5913 5913 5913 5913 5913 5912 5910 5910 5908 5907 5905 5904 5902 5900 5898
5833 5837 5837 5837 5835 5834 5848 5846 5853 5856 5861 5866 5870 5877 5879 5882 5886 5887 5890 5893 5895 5896 5897 5896 5897 5899 5901 5903 5903 5904 5904 5905 5907 5908 5910 5911 5912 5912 5911 5910 5908 5908 5906 5906 5905 5903 5901 5899 5897
5828 5829 5826 5826 5829 5834 5842 5833 5848 5856 5859 5862 5863 5871 5876 5879 5883 5884 5887 5889 5890 5891 5892 5893 5894 5895 5897 5898 5900 5900 5900 5902 5904 5905 5906 5907 5909 5910 5908 5908 5907 5905 5906 5905 5902 5901 5899 5897 5895
5821 5816 5831 5825 5828 5827 5829 5833 5840 5847 5854 5858 5860 5862 5868 5872 5878 5881 5884 5885 5886 5887 5888 5889 5890 5892 5893 5894 5895 5896 5895 5898 5899 5901 5902 5904 5905 5907 5906 5905 5904 5904 5904 5903 5901 5899 5897 5895 5893
5807 5818 5816 5813 5815 5816 5820 5826 5831 5840 5848 5855 5857 5858 5863 5868 5872 5875 5881 5882 5882 5885 5885 5885 5886 5888 5889 5890 5890 5891 5891 5892 5894 5895 5897 5899 5901 5903 5903 5902 5901 5902 5902 5901 5899 5896 5894 5892 5889
5802 5802 5803 5806 5808 5811 5815 5818 5829 5836 5843 5848 5853 5856 5858 5861 5865 5870 5876 5878 5880 5880 5880 5882 5882 5884 5885 5886 5887 5887 5888 5887 5888 5890 5891 5894 5897 5899 5899 5898 5898 5898 5898 5898 5898 5895 5893 5889 5887
5790 5793 5795 5795 5804 5806 5808 5811 5823 5830 5837 5843 5849 5851 5853 5856 5861 5862 5867 5872 5874 5876 5877 5877 5878 5879 5881 5882 5883 5884 5884 5884 5883 5884 5885 5889 5893 5895 5895 5894 5893 5894 5894 5894 5894 5892 5890 5887 5885